Location: Biharia
(46.4333°N, 22.8000°E)
Time: 08:54:05
(UTC+00:00)

Cosmos 1356 - Pass Details

Date: 16 October 2021
Orbit: 432 x 436 km, 81.1° (Epoch: 07 December)

Event Time Altitude Azimuth Distance (km) Brightness Sun altitude
Rises 16:13:59 0° 351° (N) 2,434 7.2 -6.6°
Reaches altitude 10° 16:16:04 10° 355° (N) 1,561 6.1 -6.9°
Maximum altitude 16:19:26 63° 77° (ENE) 495 3.3 -7.5°
Drops below altitude 10° 16:22:48 10° 160° (SSE) 1,549 6.0 -8.1°
Sets 16:24:51 0° 163° (SSE) 2,413 7.0 -8.4°
